TimeCDT,TemperatureF,Dew PointF,Humidity,Sea Level PressureIn,VisibilityMPH,Wind Direction,Wind SpeedMPH,Gust SpeedMPH,PrecipitationIn,Events,Conditions,WindDirDegrees,DateUTC
12:52 AM,64.0,48.9,58,29.68,10.0,SSE,13.8,-,N/A,,Clear,160,2013-04-14 05:52:00
1:52 AM,64.0,48.9,58,29.65,10.0,SSE,15.0,-,N/A,,Clear,160,2013-04-14 06:52:00
2:52 AM,62.1,50.0,65,29.63,10.0,South,12.7,23.0,N/A,,Clear,170,2013-04-14 07:52:00
3:52 AM,61.0,50.0,67,29.62,10.0,South,12.7,-,N/A,,Clear,170,2013-04-14 08:52:00
4:52 AM,60.1,51.1,72,29.60,10.0,South,11.5,-,N/A,,Clear,180,2013-04-14 09:52:00
5:52 AM,59.0,51.1,75,29.59,10.0,SSE,11.5,18.4,N/A,,Clear,160,2013-04-14 10:52:00
6:52 AM,57.9,51.1,78,29.58,10.0,South,16.1,-,N/A,,Clear,170,2013-04-14 11:52:00
7:52 AM,59.0,51.1,75,29.60,10.0,South,9.2,18.4,N/A,,Clear,170,2013-04-14 12:52:00
8:52 AM,62.1,52.0,70,29.58,10.0,SSW,21.9,31.1,N/A,,Clear,210,2013-04-14 13:52:00
9:52 AM,66.0,54.0,65,29.57,10.0,SSW,23.0,34.5,N/A,,Clear,210,2013-04-14 14:52:00
10:52 AM,72.0,54.0,53,29.57,10.0,SW,19.6,26.5,N/A,,Clear,220,2013-04-14 15:52:00
11:52 AM,78.1,53.1,42,29.58,10.0,SW,17.3,25.3,N/A,,Clear,230,2013-04-14 16:52:00
12:52 PM,84.9,42.1,22,29.54,10.0,WSW,20.7,26.5,N/A,,Clear,250,2013-04-14 17:52:00
1:52 PM,88.0,33.1,14,29.51,10.0,SW,16.1,23.0,N/A,,Clear,230,2013-04-14 18:52:00
2:52 PM,91.0,30.9,12,29.49,10.0,West,18.4,23.0,N/A,,Clear,260,2013-04-14 19:52:00
3:52 PM,91.0,30.9,12,29.48,10.0,West,13.8,-,N/A,,Clear,280,2013-04-14 20:52:00
4:52 PM,91.0,28.9,11,29.46,10.0,West,13.8,26.5,N/A,,Clear,260,2013-04-14 21:52:00
5:52 PM,91.0,28.0,10,29.45,10.0,West,10.4,-,N/A,,Clear,260,2013-04-14 22:52:00
6:52 PM,89.1,28.9,12,29.46,10.0,SW,10.4,-,N/A,,Clear,230,2013-04-14 23:52:00
7:52 PM,84.9,28.9,13,29.47,10.0,SSW,8.1,-,N/A,,Clear,210,2013-04-15 00:52:00
8:52 PM,77.0,32.0,19,29.49,10.0,South,6.9,-,N/A,,Clear,190,2013-04-15 01:52:00
9:52 PM,73.9,32.0,21,29.52,10.0,South,3.5,-,N/A,,Clear,190,2013-04-15 02:52:00
10:52 PM,69.1,34.0,27,29.53,10.0,South,10.4,-,N/A,,Clear,170,2013-04-15 03:52:00
11:52 PM,69.1,33.1,26,29.53,10.0,South,9.2,-,N/A,,Clear,170,2013-04-15 04:52:00